| time (UTC) | temp F | wind direction | speed knots | gust knots | rain 1hr in | rain 24hr in | rain mn in | humidity % | barometer mb |
| 20260507145053 | 85 | 166 | 2.6 | 13.0 | 0.00 | 0.00 | 0.00 | 74 | 1010.2 |
| 20260507144053 | 85 | 93 | 3.5 | 11.3 | 0.00 | 0.00 | 0.00 | 74 | 1010.5 |
| 20260507143553 | 85 | 140 | 6.1 | 11.3 | 0.00 | 0.00 | 0.00 | 74 | 1010.2 |
| 20260507143053 | 85 | 108 | 5.2 | 10.4 | 0.00 | 0.00 | 0.00 | 73 | 1010.3 |
| 20260507142553 | 85 | 118 | 4.3 | 11.3 | 0.00 | 0.00 | 0.00 | 73 | 1010.4 |
| 20260507142053 | 85 | 122 | 4.3 | 11.3 | 0.00 | 0.00 | 0.00 | 73 | 1010.2 |
| 20260507141553 | 85 | 146 | 6.1 | 8.7 | 0.00 | 0.00 | 0.00 | 73 | 1010.3 |
| 20260507141053 | 85 | 144 | 7.0 | 11.3 | 0.00 | 0.00 | 0.00 | 73 | 1010.2 |
| 20260507140554 | 85 | 146 | 7.0 | 11.3 | 0.00 | 0.00 | 0.00 | 73 | 1010.2 |
| 20260507135553 | 85 | 135 | 3.5 | 9.6 | 0.00 | 0.00 | 0.00 | 73 | 1010.5 |
| 20260507135053 | 85 | 131 | 3.5 | 10.4 | 0.00 | 0.00 | 0.00 | 73 | 1010.2 |
| 20260507134053 | 85 | 129 | 4.3 | 11.3 | 0.00 | 0.00 | 0.00 | 73 | 1010.3 |
| 20260507133053 | 85 | 82 | 1.7 | 11.3 | 0.00 | 0.00 | 0.00 | 73 | 1010.3 |
| 20260507132553 | 85 | 109 | 5.2 | 11.3 | 0.00 | 0.00 | 0.00 | 72 | 1010.0 |
| 20260507132053 | 85 | 140 | 5.2 | 9.6 | 0.00 | 0.00 | 0.00 | 72 | 1009.9 |
| 20260507131553 | 85 | 75 | 6.1 | 12.2 | 0.00 | 0.00 | 0.00 | 72 | 1010.0 |
| 20260507131053 | 85 | 122 | 9.6 | 12.2 | 0.00 | 0.00 | 0.00 | 72 | 1010.0 |
| 20260507130553 | 85 | 84 | 3.5 | 13.0 | 0.00 | 0.00 | 0.00 | 72 | 1010.1 |
| 20260507130053 | 85 | 117 | 6.1 | 13.0 | 0.00 | 0.00 | 0.00 | 71 | 1009.7 |
| 20260507125553 | 86 | 41 | 3.5 | 10.4 | 0.00 | 0.00 | 0.00 | 72 | 1009.8 |
| 20260507125053 | 86 | 94 | 3.5 | 10.4 | 0.00 | 0.00 | 0.00 | 72 | 1010.0 |
| 20260507124554 | 86 | 115 | 7.0 | 10.4 | 0.00 | 0.00 | 0.00 | 72 | 1009.9 |
| 20260507124053 | 86 | 122 | 2.6 | 11.3 | 0.00 | 0.00 | 0.00 | 72 | 1009.9 |
| 20260507123553 | 86 | 122 | 7.8 | 11.3 | 0.00 | 0.00 | 0.00 | 72 | 1010.1 |
| 20260507122553 | 86 | 125 | 9.6 | 11.3 | 0.00 | 0.00 | 0.00 | 72 | 1009.7 |
| 20260507122053 | 86 | 126 | 4.3 | 11.3 | 0.00 | 0.00 | 0.00 | 72 | 1009.7 |
| 20260507121553 | 86 | 117 | 4.3 | 13.0 | 0.00 | 0.00 | 0.00 | 72 | 1009.8 |
| 20260507121053 | 86 | 81 | 2.6 | 13.0 | 0.00 | 0.00 | 0.00 | 72 | 1009.8 |
| 20260507120553 | 87 | 126 | 6.1 | 10.4 | 0.00 | 0.00 | 0.00 | 72 | 1009.6 |
| 20260507120054 | 87 | 105 | 4.3 | 10.4 | 0.00 | 0.00 | 0.00 | 72 | 1009.6 |
| 20260507115553 | 87 | 101 | 3.5 | 9.6 | 0.00 | 0.00 | 0.00 | 72 | 1009.2 |
| 20260507115053 | 87 | 108 | 3.5 | 13.0 | 0.00 | 0.00 | 0.00 | 72 | 1009.1 |
| 20260507114053 | 87 | 102 | 8.7 | 12.2 | 0.00 | 0.00 | 0.00 | 72 | 1009.1 |
| 20260507113553 | 87 | 100 | 7.0 | 11.3 | 0.00 | 0.00 | 0.00 | 72 | 1009.1 |
| 20260507113053 | 87 | 116 | 5.2 | 12.2 | 0.00 | 0.00 | 0.00 | 72 | 1009.3 |
| 20260507112553 | 87 | 99 | 2.6 | 13.9 | 0.00 | 0.00 | 0.00 | 71 | 1009.3 |
| 20260507112053 | 87 | 122 | 2.6 | 13.9 | 0.00 | 0.00 | 0.00 | 71 | 1009.4 |
| 20260507111553 | 87 | 94 | 3.5 | 12.2 | 0.00 | 0.00 | 0.00 | 72 | 1008.9 |
| 20260507111053 | 87 | 110 | 6.1 | 9.6 | 0.00 | 0.00 | 0.00 | 72 | 1009.2 |
| 20260507110553 | 87 | 107 | 4.3 | 11.3 | 0.00 | 0.00 | 0.00 | 71 | 1009.1 |
| 20260507110053 | 87 | 125 | 2.6 | 11.3 | 0.00 | 0.00 | 0.00 | 72 | 1008.8 |
| 20260507105553 | 87 | 99 | 9.6 | 12.2 | 0.00 | 0.00 | 0.00 | 71 | 1008.8 |
| 20260507104554 | 87 | 99 | 5.2 | 12.2 | 0.00 | 0.00 | 0.00 | 72 | 1008.7 |
| 20260507104053 | 87 | 114 | 7.8 | 12.2 | 0.00 | 0.00 | 0.00 | 72 | 1008.7 |
| 20260507103553 | 87 | 96 | 7.0 | 13.0 | 0.00 | 0.00 | 0.00 | 72 | 1008.5 |
| 20260507103053 | 87 | 110 | 3.5 | 13.0 | 0.00 | 0.00 | 0.00 | 72 | 1008.6 |
| 20260507102053 | 88 | 135 | 5.2 | 15.6 | 0.00 | 0.00 | 0.00 | 72 | 1008.5 |
| 20260507101554 | 88 | 121 | 7.0 | 14.8 | 0.00 | 0.00 | 0.00 | 71 | 1008.3 |
| 20260507101053 | 88 | 127 | 11.3 | 14.8 | 0.00 | 0.00 | 0.00 | 70 | 1008.3 |
| 20260507100553 | 88 | 76 | 8.7 | 13.9 | 0.00 | 0.00 | 0.00 | 70 | 1008.1 |
| 20260507100053 | 89 | 93 | 7.0 | 13.9 | 0.00 | 0.00 | 0.00 | 69 | 1008.1 |
| 20260507095553 | 89 | 121 | 3.5 | 15.6 | 0.00 | 0.00 | 0.00 | 68 | 1008.0 |
| 20260507095053 | 89 | 151 | 5.2 | 15.6 | 0.00 | 0.00 | 0.00 | 68 | 1008.2 |
| 20260507094553 | 89 | 88 | 5.2 | 14.8 | 0.00 | 0.00 | 0.00 | 68 | 1008.2 |
| 20260507094053 | 89 | 111 | 9.6 | 16.5 | 0.00 | 0.00 | 0.00 | 67 | 1007.9 |
| 20260507093553 | 90 | 131 | 11.3 | 16.5 | 0.00 | 0.00 | 0.00 | 67 | 1008.1 |
| 20260507093053 | 90 | 91 | 5.2 | 18.2 | 0.00 | 0.00 | 0.00 | 66 | 1007.8 |
| 20260507092054 | 90 | 93 | 7.0 | 20.0 | 0.00 | 0.00 | 0.00 | 66 | 1007.8 |
| 20260507091554 | 91 | 99 | 13.0 | 20.0 | 0.00 | 0.00 | 0.00 | 65 | 1007.7 |
| 20260507091053 | 91 | 113 | 6.1 | 14.8 | 0.00 | 0.00 | 0.00 | 65 | 1007.5 |
| 20260507090553 | 91 | 44 | 1.7 | 14.8 | 0.00 | 0.00 | 0.00 | 64 | 1007.7 |
| 20260507090053 | 91 | 109 | 3.5 | 14.8 | 0.00 | 0.00 | 0.00 | 64 | 1007.4 |
| 20260507085553 | 91 | 135 | 10.4 | 14.8 | 0.00 | 0.00 | 0.00 | 63 | 1007.3 |
| 20260507084553 | 92 | 109 | 6.1 | 17.4 | 0.00 | 0.00 | 0.00 | 62 | 1007.1 |
| 20260507083553 | 93 | 142 | 5.2 | 17.4 | 0.00 | 0.00 | 0.00 | 62 | 1007.1 |
| 20260507083053 | 92 | 78 | 3.5 | 17.4 | 0.00 | 0.00 | 0.00 | 61 | 1007.2 |
| 20260507082554 | 93 | 107 | 3.5 | 16.5 | 0.00 | 0.00 | 0.00 | 60 | 1007.2 |
| 20260507082053 | 93 | 129 | 5.2 | 13.9 | 0.00 | 0.00 | 0.00 | 60 | 1007.1 |
| 20260507080553 | 93 | 100 | 4.3 | 11.3 | 0.00 | 0.00 | 0.00 | 60 | 1007.1 |
| 20260507075553 | 94 | 128 | 9.6 | 13.9 | 0.00 | 0.00 | 0.00 | 58 | 1007.2 |
| 20260507075053 | 94 | 122 | 3.5 | 15.6 | 0.00 | 0.00 | 0.00 | 60 | 1007.3 |
| 20260507074553 | 93 | 142 | 2.6 | 16.5 | 0.00 | 0.00 | 0.00 | 60 | 1007.2 |
| 20260507073553 | 94 | 132 | 7.8 | 13.9 | 0.00 | 0.00 | 0.00 | 58 | 1007.2 |
| 20260507073053 | 94 | 111 | 2.6 | 14.8 | 0.00 | 0.00 | 0.00 | 58 | 1007.2 |
| 20260507072553 | 94 | 31 | 2.6 | 14.8 | 0.00 | 0.00 | 0.00 | 58 | 1007.0 |
| 20260507072053 | 94 | 191 | 2.6 | 12.2 | 0.00 | 0.00 | 0.00 | 58 | 1007.2 |
| 20260507071553 | 94 | 134 | 1.7 | 13.9 | 0.00 | 0.00 | 0.00 | 57 | 1007.3 |
| 20260507071053 | 94 | 129 | 7.0 | 14.8 | 0.00 | 0.00 | 0.00 | 57 | 1007.1 |
| 20260507070053 | 95 | 111 | 10.4 | 13.9 | 0.00 | 0.00 | 0.00 | 57 | 1007.2 |
| 20260507065554 | 95 | 178 | 8.7 | 11.3 | 0.00 | 0.00 | 0.00 | 56 | 1007.3 |
| 20260507065053 | 94 | 147 | 6.1 | 14.8 | 0.00 | 0.00 | 0.00 | 57 | 1007.2 |
| 20260507064553 | 94 | 93 | 7.0 | 14.8 | 0.00 | 0.00 | 0.00 | 57 | 1007.4 |
| 20260507064053 | 94 | 105 | 6.1 | 13.9 | 0.00 | 0.00 | 0.00 | 57 | 1007.4 |
| 20260507063553 | 94 | 101 | 6.1 | 13.9 | 0.00 | 0.00 | 0.00 | 56 | 1007.5 |
| 20260507062053 | 95 | 106 | 6.1 | 13.9 | 0.00 | 0.00 | 0.00 | 56 | 1007.6 |
| 20260507061553 | 95 | 116 | 8.7 | 14.8 | 0.00 | 0.00 | 0.00 | 55 | 1007.6 |
| 20260507061053 | 94 | 132 | 8.7 | 14.8 | 0.00 | 0.00 | 0.00 | 56 | 1007.8 |
| 20260507060553 | 94 | 149 | 3.5 | 14.8 | 0.00 | 0.00 | 0.00 | 56 | 1007.9 |
| 20260507060053 | 94 | 163 | 6.1 | 14.8 | 0.00 | 0.00 | 0.00 | 56 | 1007.7 |
| 20260507055553 | 94 | 117 | 5.2 | 12.2 | 0.00 | 0.00 | 0.00 | 55 | 1008.0 |
| 20260507055053 | 95 | 98 | 6.1 | 12.2 | 0.00 | 0.00 | 0.00 | 54 | 1008.1 |
| 20260507054553 | 94 | 98 | 7.0 | 12.2 | 0.00 | 0.00 | 0.00 | 55 | 1008.2 |
| 20260507053553 | 94 | 118 | 9.6 | 13.9 | 0.00 | 0.00 | 0.00 | 53 | 1008.5 |
| 20260507052553 | 93 | 111 | 3.5 | 14.8 | 0.00 | 0.00 | 0.00 | 56 | 1008.5 |
| 20260507052053 | 93 | 169 | 7.0 | 14.8 | 0.00 | 0.00 | 0.00 | 57 | 1008.9 |
| 20260507051553 | 94 | 112 | 6.1 | 13.0 | 0.00 | 0.00 | 0.00 | 54 | 1008.7 |
| 20260507051056 | 95 | 94 | 3.5 | 8.7 | 0.00 | 0.00 | 0.00 | 54 | 1008.7 |
| 20260507050553 | 94 | 88 | 4.3 | 9.6 | 0.00 | 0.00 | 0.00 | 55 | 1008.9 |
| 20260507045553 | 93 | 99 | 3.5 | 11.3 | 0.00 | 0.00 | 0.00 | 54 | 1009.2 |
| 20260507045053 | 92 | 119 | 5.2 | 13.0 | 0.00 | 0.00 | 0.00 | 57 | 1009.3 |
| 20260507044553 | 92 | 91 | 7.8 | 14.8 | 0.00 | 0.00 | 0.00 | 56 | 1009.5 |
| 20260507043553 | 93 | 103 | 9.6 | 11.3 | 0.00 | 0.00 | 0.00 | 56 | 1009.6 |
| 20260507043053 | 94 | 73 | 8.7 | 11.3 | 0.00 | 0.00 | 0.00 | 55 | 1009.9 |
| 20260507042553 | 94 | 129 | 3.5 | 11.3 | 0.00 | 0.00 | 0.00 | 55 | 1009.9 |
| 20260507042053 | 93 | 149 | 1.7 | 11.3 | 0.00 | 0.00 | 0.00 | 57 | 1009.8 |
| 20260507041553 | 93 | 139 | 2.6 | 9.6 | 0.00 | 0.00 | 0.00 | 56 | 1009.9 |
| 20260507041053 | 92 | 117 | 0.9 | 11.3 | 0.00 | 0.00 | 0.00 | 57 | 1010.0 |
| 20260507040054 | 92 | 84 | 8.7 | 13.0 | 0.00 | 0.00 | 0.00 | 56 | 1010.0 |
| 20260507035553 | 92 | 105 | 9.6 | 13.0 | 0.00 | 0.00 | 0.00 | 57 | 1010.2 |
| 20260507035053 | 92 | 0 | 3.5 | 11.3 | 0.00 | 0.00 | 0.00 | 58 | 1010.1 |
| 20260507034553 | 92 | 86 | 6.1 | 13.9 | 0.00 | 0.00 | 0.00 | 57 | 1010.2 |
| 20260507034053 | 91 | 97 | 8.7 | 14.8 | 0.00 | 0.00 | 0.00 | 59 | 1010.4 |
| 20260507033553 | 91 | 128 | 2.6 | 16.5 | 0.00 | 0.00 | 0.00 | 59 | 1010.6 |
| 20260507033053 | 91 | 98 | 8.7 | 16.5 | 0.00 | 0.00 | 0.00 | 59 | 1010.5 |
| 20260507032553 | 92 | 113 | 6.1 | 13.0 | 0.00 | 0.00 | 0.00 | 58 | 1010.5 |
| 20260507032053 | 92 | 126 | 7.8 | 14.8 | 0.00 | 0.00 | 0.00 | 59 | 1010.5 |
| 20260507031053 | 91 | 107 | 12.2 | 13.0 | 0.00 | 0.00 | 0.00 | 60 | 1010.6 |
| 20260507030553 | 90 | 109 | 5.2 | 13.0 | 0.00 | 0.00 | 0.00 | 63 | 1010.5 |
| 20260507025553 | 90 | 108 | 3.5 | 14.8 | 0.00 | 0.00 | 0.00 | 62 | 1010.7 |
| 20260507025053 | 91 | 149 | 8.7 | 15.6 | 0.00 | 0.00 | 0.00 | 61 | 1010.8 |
| 20260507024553 | 90 | 117 | 7.8 | 15.6 | 0.00 | 0.00 | 0.00 | 62 | 1010.7 |
| 20260507023554 | 90 | 110 | 9.6 | 17.4 | 0.00 | 0.00 | 0.00 | 62 | 1010.8 |
| 20260507022554 | 91 | 53 | 1.7 | 13.9 | 0.00 | 0.00 | 0.00 | 62 | 1011.0 |
| 20260507022053 | 91 | 81 | 8.7 | 13.9 | 0.00 | 0.00 | 0.00 | 61 | 1010.9 |
| 20260507020553 | 91 | 113 | 6.1 | 11.3 | 0.00 | 0.00 | 0.00 | 63 | 1011.1 |
| 20260507020053 | 91 | 98 | 6.1 | 13.9 | 0.00 | 0.00 | 0.00 | 62 | 1010.9 |
| 20260507015053 | 90 | 114 | 8.7 | 16.5 | 0.00 | 0.00 | 0.00 | 62 | 1011.2 |
| 20260507014552 | 90 | 97 | 5.2 | 16.5 | 0.00 | 0.00 | 0.00 | 62 | 1011.2 |
| 20260507013053 | 89 | 67 | 5.2 | 13.9 | 0.00 | 0.00 | 0.00 | 64 | 1011.2 |
| 20260507012053 | 90 | 119 | 5.2 | 9.6 | 0.00 | 0.00 | 0.00 | 62 | 1011.3 |
| 20260507011553 | 89 | 61 | 6.1 | 9.6 | 0.00 | 0.00 | 0.00 | 63 | 1011.4 |
| 20260507010553 | 88 | 138 | 4.3 | 12.2 | 0.00 | 0.00 | 0.00 | 65 | 1011.3 |
| 20260507010053 | 88 | 145 | 2.6 | 13.0 | 0.00 | 0.00 | 0.00 | 65 | 1011.3 |
| 20260507005553 | 87 | 121 | 6.1 | 13.9 | 0.00 | 0.00 | 0.00 | 67 | 1011.4 |
| 20260507005053 | 87 | 149 | 4.3 | 13.9 | 0.00 | 0.00 | 0.00 | 68 | 1011.3 |
| 20260507004553 | 87 | 114 | 7.0 | 13.0 | 0.00 | 0.00 | 0.00 | 68 | 1011.4 |
| 20260507004053 | 87 | 78 | 6.1 | 13.9 | 0.00 | 0.00 | 0.00 | 69 | 1011.3 |
| 20260507003553 | 87 | 110 | 6.1 | 13.9 | 0.00 | 0.00 | 0.00 | 68 | 1011.2 |
| 20260507003053 | 87 | 112 | 2.6 | 12.2 | 0.00 | 0.00 | 0.00 | 70 | 1011.3 |
| 20260507002053 | 86 | 107 | 6.1 | 14.8 | 0.00 | 0.00 | 0.00 | 71 | 1011.3 |
| 20260507001553 | 86 | 99 | 9.6 | 14.8 | 0.00 | 0.00 | 0.00 | 71 | 1011.5 |
| 20260507001053 | 86 | 119 | 8.7 | 12.2 | 0.00 | 0.00 | 0.00 | 71 | 1011.3 |
| 20260507000553 | 86 | 118 | 5.2 | 13.0 | 0.00 | 0.00 | 0.00 | 71 | 1011.3 |
| 20260506235554 | 85 | 150 | 1.7 | 13.0 | 0.00 | 0.00 | 0.00 | 73 | 1011.2 |
| 20260506235052 | 85 | 86 | 3.5 | 13.9 | 0.00 | 0.00 | 0.00 | 73 | 1011.3 |
| 20260506234554 | 85 | 134 | 5.2 | 13.9 | 0.00 | 0.00 | 0.00 | 73 | 1011.2 |
| 20260506234053 | 85 | 113 | 8.7 | 13.0 | 0.00 | 0.00 | 0.00 | 72 | 1011.1 |
| 20260506233553 | 85 | 111 | 5.2 | 13.0 | 0.00 | 0.00 | 0.00 | 72 | 1011.1 |
| 20260506232553 | 85 | 156 | 4.3 | 11.3 | 0.00 | 0.00 | 0.00 | 72 | 1011.0 |
| 20260506232053 | 85 | 128 | 4.3 | 11.3 | 0.00 | 0.00 | 0.00 | 73 | 1010.9 |
| 20260506231552 | 85 | 114 | 8.7 | 12.2 | 0.00 | 0.00 | 0.00 | 73 | 1011.1 |
| 20260506231053 | 85 | 117 | 9.6 | 12.2 | 0.00 | 0.00 | 0.00 | 73 | 1011.0 |
| 20260506230054 | 84 | 121 | 3.5 | 10.4 | 0.00 | 0.00 | 0.00 | 75 | 1010.9 |
| 20260506225053 | 84 | 129 | 6.1 | 11.3 | 0.00 | 0.00 | 0.00 | 75 | 1010.8 |
| 20260506224553 | 84 | 135 | 3.5 | 11.3 | 0.00 | 0.00 | 0.00 | 76 | 1010.7 |
| 20260506224052 | 84 | 94 | 3.5 | 10.4 | 0.00 | 0.00 | 0.00 | 76 | 1010.5 |
| 20260506223053 | 83 | 104 | 5.2 | 10.4 | 0.00 | 0.00 | 0.00 | 77 | 1010.6 |
| 20260506222553 | 83 | 110 | 4.3 | 12.2 | 0.00 | 0.00 | 0.00 | 77 | 1010.6 |
| 20260506222053 | 83 | 97 | 6.1 | 12.2 | 0.00 | 0.00 | 0.00 | 77 | 1010.3 |
| 20260506221054 | 82 | 98 | 8.7 | 12.2 | 0.00 | 0.00 | 0.00 | 78 | 1010.5 |
| 20260506220553 | 82 | 73 | 3.5 | 12.2 | 0.00 | 0.00 | 0.00 | 79 | 1010.3 |
| 20260506220053 | 82 | 100 | 5.2 | 12.2 | 0.00 | 0.00 | 0.00 | 80 | 1010.4 |
| 20260506215553 | 82 | 93 | 7.0 | 10.4 | 0.00 | 0.00 | 0.00 | 80 | 1010.6 |
| 20260506215052 | 82 | 99 | 5.2 | 11.3 | 0.00 | 0.00 | 0.00 | 81 | 1010.4 |
| 20260506214553 | 81 | 119 | 3.5 | 11.3 | 0.00 | 0.00 | 0.00 | 81 | 1010.5 |
| 20260506213553 | 81 | 63 | 3.5 | 9.6 | 0.00 | 0.00 | 0.00 | 81 | 1010.3 |
| 20260506212053 | 81 | 108 | 2.6 | 9.6 | 0.00 | 0.00 | 0.00 | 81 | 1010.1 |
| 20260506211553 | 81 | 142 | 3.5 | 10.4 | 0.00 | 0.00 | 0.00 | 81 | 1010.2 |
| 20260506210053 | 81 | 55 | 3.5 | 7.8 | 0.00 | 0.00 | 0.00 | 82 | 1010.3 |
| 20260506205553 | 81 | 114 | 3.5 | 4.3 | 0.00 | 0.00 | 0.00 | 83 | 1010.1 |
| 20260506205053 | 81 | 129 | 1.7 | 4.3 | 0.00 | 0.00 | 0.00 | 82 | 1010.0 |
| 20260506204553 | 81 | 87 | 2.6 | 6.1 | 0.00 | 0.00 | 0.00 | 82 | 1009.8 |
| 20260506204053 | 81 | 161 | 1.7 | 6.1 | 0.00 | 0.00 | 0.00 | 82 | 1010.0 |
| 20260506203553 | 81 | 107 | 1.7 | 5.2 | 0.00 | 0.00 | 0.00 | 82 | 1009.9 |
| 20260506203053 | 81 | 115 | 3.5 | 5.2 | 0.00 | 0.00 | 0.00 | 82 | 1009.9 |
| 20260506202553 | 81 | 75 | 1.7 | 5.2 | 0.00 | 0.00 | 0.00 | 81 | 1010.0 |
| 20260506201553 | 81 | 109 | 3.5 | 7.0 | 0.00 | 0.00 | 0.00 | 81 | 1009.6 |
| 20260506201053 | 81 | 114 | 2.6 | 7.0 | 0.00 | 0.00 | 0.00 | 80 | 1009.8 |
| 20260506200553 | 81 | 118 | 2.6 | 7.0 | 0.00 | 0.00 | 0.00 | 80 | 1009.8 |
| 20260506200054 | 82 | 99 | 3.5 | 7.0 | 0.00 | 0.00 | 0.00 | 79 | 1009.8 |
| 20260506195553 | 82 | 87 | 5.2 | 8.7 | 0.00 | 0.00 | 0.00 | 78 | 1009.8 |
| 20260506195053 | 82 | 81 | 5.2 | 8.7 | 0.00 | 0.00 | 0.00 | 78 | 1009.9 |
| 20260506194553 | 82 | 130 | 1.7 | 9.6 | 0.00 | 0.00 | 0.00 | 78 | 1009.7 |
| 20260506194053 | 82 | 114 | 6.1 | 11.3 | 0.00 | 0.00 | 0.00 | 77 | 1009.8 |
| 20260506193553 | 82 | 120 | 5.2 | 11.3 | 0.00 | 0.00 | 0.00 | 77 | 1009.6 |
| 20260506193054 | 82 | 89 | 5.2 | 8.7 | 0.00 | 0.00 | 0.00 | 77 | 1009.4 |
| 20260506192553 | 82 | 96 | 6.1 | 8.7 | 0.00 | 0.00 | 0.00 | 76 | 1009.7 |
| 20260506192053 | 82 | 110 | 4.3 | 8.7 | 0.00 | 0.00 | 0.00 | 76 | 1009.5 |
| 20260506191554 | 82 | 136 | 3.5 | 7.8 | 0.00 | 0.00 | 0.00 | 77 | 1009.6 |
| 20260506191053 | 82 | 97 | 3.5 | 11.3 | 0.00 | 0.00 | 0.00 | 77 | 1009.4 |
| 20260506190553 | 82 | 112 | 3.5 | 11.3 | 0.00 | 0.00 | 0.00 | 77 | 1009.6 |
| 20260506190054 | 82 | 82 | 5.2 | 11.3 | 0.00 | 0.00 | 0.00 | 76 | 1009.5 |
| 20260506185553 | 82 | 131 | 3.5 | 11.3 | 0.00 | 0.00 | 0.00 | 77 | 1009.4 |
| 20260506185053 | 82 | 99 | 6.1 | 11.3 | 0.00 | 0.00 | 0.00 | 76 | 1009.7 |
| 20260506184553 | 82 | 129 | 7.8 | 12.2 | 0.00 | 0.00 | 0.00 | 77 | 1009.6 |
| 20260506184053 | 82 | 114 | 4.3 | 12.2 | 0.00 | 0.00 | 0.00 | 76 | 1009.5 |
| 20260506183553 | 82 | 130 | 1.7 | 12.2 | 0.00 | 0.00 | 0.00 | 76 | 1009.5 |
| 20260506183054 | 82 | 79 | 4.3 | 12.2 | 0.00 | 0.00 | 0.00 | 75 | 1009.6 |
| 20260506182553 | 82 | 172 | 5.2 | 11.3 | 0.00 | 0.00 | 0.00 | 76 | 1009.8 |
| 20260506182053 | 82 | 89 | 4.3 | 10.4 | 0.00 | 0.00 | 0.00 | 76 | 1009.5 |
| 20260506181553 | 82 | 103 | 4.3 | 10.4 | 0.00 | 0.00 | 0.00 | 77 | 1009.6 |
| 20260506181053 | 82 | 135 | 3.5 | 9.6 | 0.00 | 0.00 | 0.00 | 76 | 1009.7 |
| 20260506180554 | 82 | 124 | 2.6 | 12.2 | 0.00 | 0.00 | 0.00 | 76 | 1009.7 |
| 20260506180053 | 82 | 94 | 3.5 | 12.2 | 0.00 | 0.00 | 0.00 | 75 | 1009.7 |
| 20260506175553 | 82 | 107 | 1.7 | 11.3 | 0.00 | 0.00 | 0.00 | 75 | 1009.8 |
| 20260506175053 | 82 | 119 | 3.5 | 11.3 | 0.00 | 0.00 | 0.00 | 75 | 1009.8 |
| 20260506174553 | 82 | 88 | 2.6 | 11.3 | 0.00 | 0.00 | 0.00 | 75 | 1009.8 |
| 20260506174052 | 82 | 111 | 3.5 | 12.2 | 0.00 | 0.00 | 0.00 | 76 | 1009.8 |
| 20260506173553 | 82 | 119 | 4.3 | 12.2 | 0.00 | 0.00 | 0.00 | 76 | 1009.9 |
| 20260506173053 | 82 | 129 | 5.2 | 9.6 | 0.00 | 0.00 | 0.00 | 76 | 1010.0 |
| 20260506172553 | 82 | 174 | 2.6 | 8.7 | 0.00 | 0.00 | 0.00 | 76 | 1009.9 |
| 20260506172053 | 82 | 105 | 3.5 | 14.8 | 0.00 | 0.00 | 0.00 | 76 | 1010.0 |
| 20260506171553 | 82 | 117 | 3.5 | 14.8 | 0.00 | 0.00 | 0.00 | 76 | 1010.0 |
| 20260506171053 | 82 | 177 | 5.2 | 8.7 | 0.00 | 0.00 | 0.00 | 76 | 1010.1 |
| 20260506170553 | 82 | 158 | 2.6 | 9.6 | 0.00 | 0.00 | 0.00 | 76 | 1010.3 |
| 20260506170053 | 83 | 101 | 1.7 | 11.3 | 0.00 | 0.00 | 0.00 | 75 | 1010.2 |
| 20260506165553 | 82 | 106 | 4.3 | 11.3 | 0.00 | 0.00 | 0.00 | 75 | 1010.2 |
| 20260506165053 | 82 | 104 | 5.2 | 9.6 | 0.00 | 0.00 | 0.00 | 77 | 1010.3 |
| 20260506164553 | 82 | 96 | 3.5 | 9.6 | 0.00 | 0.00 | 0.00 | 77 | 1010.4 |
| 20260506164053 | 82 | 112 | 7.8 | 7.8 | 0.00 | 0.00 | 0.00 | 77 | 1010.4 |
| 20260506163553 | 82 | 94 | 3.5 | 7.8 | 0.00 | 0.00 | 0.00 | 77 | 1010.4 |
| 20260506163053 | 82 | 109 | 2.6 | 11.3 | 0.00 | 0.00 | 0.00 | 77 | 1010.3 |
| 20260506162052 | 83 | 145 | 2.6 | 9.6 | 0.00 | 0.00 | 0.00 | 77 | 1010.6 |
| 20260506161553 | 83 | 119 | 3.5 | 9.6 | 0.00 | 0.00 | 0.00 | 76 | 1010.5 |
| 20260506161053 | 83 | 114 | 7.0 | 10.4 | 0.00 | 0.00 | 0.00 | 76 | 1010.6 |
| 20260506160553 | 83 | 146 | 5.2 | 10.4 | 0.00 | 0.00 | 0.00 | 77 | 1010.5 |
| 20260506155553 | 83 | 102 | 3.5 | 13.0 | 0.00 | 0.00 | 0.00 | 77 | 1010.8 |
| 20260506155053 | 83 | 112 | 3.5 | 13.0 | 0.00 | 0.00 | 0.00 | 77 | 1010.8 |
| 20260506154053 | 83 | 137 | 4.3 | 13.0 | 0.00 | 0.00 | 0.00 | 77 | 1010.9 |
| 20260506153553 | 83 | 68 | 0.9 | 10.4 | 0.00 | 0.00 | 0.00 | 77 | 1011.0 |
| 20260506153053 | 83 | 182 | 4.3 | 11.3 | 0.00 | 0.00 | 0.00 | 77 | 1011.1 |
| 20260506152554 | 83 | 84 | 3.5 | 11.3 | 0.00 | 0.00 | 0.00 | 77 | 1011.0 |
| 20260506152053 | 83 | 120 | 4.3 | 11.3 | 0.00 | 0.00 | 0.00 | 77 | 1011.1 |
| 20260506151553 | 83 | 126 | 2.6 | 11.3 | 0.00 | 0.00 | 0.00 | 76 | 1011.1 |
| 20260506151053 | 83 | 122 | 7.8 | 11.3 | 0.00 | 0.00 | 0.00 | 76 | 1011.1 |
| 20260506150553 | 83 | 114 | 4.3 | 13.0 | 0.00 | 0.00 | 0.00 | 77 | 1011.3 |
| 20260506150053 | 83 | 125 | 7.0 | 13.0 | 0.00 | 0.00 | 0.00 | 76 | 1011.2 |
| 20260506145552 | 83 | 120 | 2.6 | 12.2 | 0.00 | 0.00 | 0.00 | 76 | 1011.4 |